Location: Ay?beleni
(36.6500°N, 30.3000°E)
Time: 01:16:32
(UTC+00:00)

Cosmos 1954 Rocket - Pass Details

Date: 09 April 2020
Orbit: 752 x 781 km, 74.0° (Epoch: 06 June)

Event Time Altitude Azimuth Distance (km) Brightness Sun altitude
Rises 17:44:24 0° 190° (S) 3,229 7.1 -15.4°
Reaches altitude 10° 17:46:47 10° 188° (S) 2,302 6.3 -15.9°
Maximum altitude 17:51:58 71° 106° (ESE) 808 3.9 -16.8°
Drops below altitude 10° 17:57:09 10° 22° (NNE) 2,297 6.5 -17.8°
Sets 17:59:32 0° 21° (NNE) 3,223 7.3 -18.2°
